Weather reports worldwide

Advertisment
Aurillac, France (7549): temperature & dewpoint: 18.03.2019 17:00:00 - 24.03.2019 17:00:00 (CET)Aurillac, France (7549): temperature 5cm: 18.03.2019 17:00:00 - 24.03.2019 17:00:00 (CET)Aurillac, France (7549): temperature -20cm & temperature -100cm: 18.03.2019 17:00:00 - 24.03.2019 17:00:00 (CET)Aurillac, France (7549): wind speed & gusts: 18.03.2019 17:00:00 - 24.03.2019 17:00:00 (CET)Aurillac, France (7549): wind direction: 18.03.2019 17:00:00 - 24.03.2019 17:00:00 (CET)Aurillac, France (7549): reduced air pressure: 18.03.2019 17:00:00 - 24.03.2019 17:00:00 (CET)Aurillac, France (7549): visibility: 18.03.2019 17:00:00 - 24.03.2019 17:00:00 (CET)Aurillac, France (7549): sunshine duration: 18.03.2019 17:00:00 - 24.03.2019 17:00:00 (CET)Aurillac, France (7549): precipitation: 18.03.2019 17:00:00 - 24.03.2019 17:00:00 (CET)
Date & Time tt [°C] td [°C] tt 5cm [°C] tt -20cm [°C] tt -100cm [°C] ff [km/h] ff [kn] fx [km/h] fx [kn] dd ppp [hPa] vv [km] sd [min] rr [mm]
24.03.2019 17:00:00 17,8 -0,5 21,2 8,8 8,6 19 10 32 17 WNW 1021,1 56 60 0,0
24.03.2019 16:00:00 18,5 -2,5 23,5 8,7 8,5 18 10 27 15 NW 1021,3 60 60 0,0
24.03.2019 15:00:00 18,8 -2,8 24,3 8,6 8,6 13 7 26 14 WNW 1021,3 37 60 0,0
24.03.2019 14:00:00 18,6 -2,4 23,7 8,6 8,6 14 8 23 13 WNW 1021,9 60 60 0,0
24.03.2019 13:00:00 17,7 -1,1 23,1 8,6 8,6 12 6 22 12 NW 1022,9 56 60 0,0
24.03.2019 12:00:00 17,1 -2,6 23,1 8,6 8,6 9 5 16 8 WNW 1023,4 52 60 0,0
24.03.2019 11:00:00 15,0 2,5 20,9 8,7 8,6 5 3 11 6 NW 1023,9 20 60 0,0
24.03.2019 10:00:00 12,6 1,3 16,5 8,7 8,6 4 2 7 4 WNW 1024,8 51 60 0,0
24.03.2019 09:00:00 9,5 2,1 11,4 8,8 8,6 4 2 8 4 ESE 1025,5 20 60 0,0
24.03.2019 08:00:00 6,6 1,9 -0,3 8,9 8,5 4 2 8 4 E 1026,4 28 52 0,0
24.03.2019 07:00:00 2,5 0,2 -0,7 8,9 8,5 5 3 8 5 ENE 1027,6 25 0 0,0
24.03.2019 06:00:00 2,9 -0,2 0,3 9,0 8,5 8 4 9 5 ENE 1027,1 30 0 0,0
24.03.2019 05:00:00 5,3 -0,3 -1,2 9,0 8,5 8 5 11 6 NE 1026,2 60 0 0,0
24.03.2019 04:00:00 4,4 0,4 -0,7 9,1 8,5 3 1 10 6 ENE 1026,3 30 0 0,0
24.03.2019 03:00:00 4,6 1,1 -0,1 9,1 8,6 9 5 10 6 E 1026,2 43 0 0,0
24.03.2019 02:00:00 5,0 1,1 0,7 9,1 8,5 5 3 10 5 E 1026,5 33 0 0,0
24.03.2019 01:00:00 7,4 1,5 1,3 9,1 8,5 7 4 9 5 NE 1026,0 35 0 0,0
24.03.2019 00:00:00 7,5 2,0 1,9 9,1 8,6 4 2 11 6 NE 1026,2 42 0 0,0
23.03.2019 23:00:00 8,5 2,7 4,1 9,1 8,5 8 4 12 6 E 1026,1 47 0 0,0
23.03.2019 22:00:00 10,1 3,4 3,6 9,0 8,5 5 3 10 6 E 1026,0 40 0 0,0
23.03.2019 21:00:00 10,8 3,6 5,7 8,9 8,5 8 4 12 6 E 1025,5 48 0 0,0
23.03.2019 20:00:00 13,4 2,9 7,2 8,7 8,5 8 4 11 6 SE 1024,4 60 0 0,0
23.03.2019 19:00:00 16,0 2,7 13,6 8,6 8,5 10 6 24 13 WNW 1023,4 60 44 0,0
23.03.2019 18:00:00 18,3 2,2 20,1 8,5 8,6 17 9 29 15 WNW 1022,4 33 60 0,0
23.03.2019 17:00:00 19,4 1,4 23,1 8,3 8,5 19 10 27 15 WNW 1022,4 20 60 0,0
23.03.2019 16:00:00 20,0 -0,1 24,7 8,2 8,5 15 8 25 14 WNW 1022,6 60 60 0,0
23.03.2019 15:00:00 20,1 1,5 25,2 8,1 8,5 13 7 24 13 WNW 1023,0 40 60 0,0
23.03.2019 14:00:00 19,3 -0,2 26,0 8,0 8,5 8 5 18 10 NNW 1024,1 19 60 0,0
23.03.2019 13:00:00 18,4 -0,5 24,9 8,1 8,5 5 3 16 9 NW 1025,1 18 60 0,0
23.03.2019 12:00:00 17,2 1,6 22,4 8,1 8,5 8 4 13 7 WNW 1025,8 19 60 0,0
23.03.2019 11:00:00 14,6 3,4 18,8 8,2 8,5 8 5 14 8 WNW 1026,7 45 60 0,0
23.03.2019 10:00:00 12,6 3,8 16,3 8,2 8,5 4 2 8 4 W 1027,4 50 58 0,0
23.03.2019 09:00:00 9,0 2,5 5,8 8,3 8,5 3 1 8 4 SE 1028,3 18 60 0,0
23.03.2019 08:00:00 3,9 0,8 -1,6 8,4 8,5 4 2 8 4 ESE 1029,7 58 50 0,0
23.03.2019 07:00:00 1,7 -0,4 -2,2 8,4 8,5 6 3 8 5 ESE 1030,3 35 0 0,0
23.03.2019 06:00:00 1,9 -0,7 -2,0 8,5 8,5 4 2 9 5 ESE 1030,2 51 0 0,0
23.03.2019 05:00:00 2,1 -0,2 -2,0 8,5 8,5 7 4 9 5 ESE 1030,3 39 0 0,0
23.03.2019 04:00:00 2,4 0,3 -1,2 8,5 8,5 5 3 9 5 E 1030,3 43 0 0,0
23.03.2019 03:00:00 2,8 0,2 -1,1 8,6 8,5 7 4 10 5 ENE 1030,3 33 0 0,0
23.03.2019 02:00:00 3,9 0,2 -0,7 8,6 8,5 6 4 8 4 E 1030,1 50 0 0,0
23.03.2019 01:00:00 4,3 0,8 0,0 8,6 8,5 4 2 8 4 ESE 1030,0 38 0 0,0
23.03.2019 00:00:00 6,2 0,9 1,2 8,5 8,5 5 3 7 4 E 1029,6 45 0 0,0
22.03.2019 23:00:00 6,7 1,8 1,4 8,5 8,5 4 2 8 5 E 1029,5 33 0 0,0
22.03.2019 22:00:00 9,7 1,6 3,0 8,4 8,5 8 5 11 6 NE 1028,5 41 0 0,0
22.03.2019 21:00:00 10,8 1,9 3,8 8,2 8,5 4 2 5 3 NE 1028,0 55 0 0,0
22.03.2019 20:00:00 12,8 0,5 6,4 8,1 8,5 3 2 8 4 W 1027,0 42 0 0,0
22.03.2019 19:00:00 15,9 -0,8 12,5 7,9 8,5 6 3 15 8 WSW 1025,8 43 43 0,0
22.03.2019 18:00:00 17,9 0,1 20,2 7,8 8,5 11 6 14 8 W 1024,9 55 60 0,0
22.03.2019 17:00:00 19,0 0,1 24,3 7,7 8,5 8 4 16 9 WSW 1024,6 56 60 0,0
22.03.2019 16:00:00 18,8 -0,6 24,2 7,6 8,5 11 6 19 10 NW 1025,0 20 60 0,0
22.03.2019 15:00:00 18,7 -0,7 24,7 7,5 8,5 7 4 19 10 NW 1025,5 20 60 0,0
22.03.2019 14:00:00 18,5 -1,9 24,7 7,4 8,5 6 4 14 7 W 1026,0 56 60 0,0
22.03.2019 13:00:00 17,1 -1,6 23,7 7,4 8,5 5 3 16 9 NW 1026,9 56 60 0,0
22.03.2019 12:00:00 15,7 -0,5 22,1 7,5 8,5 8 4 13 7 NW 1027,6 20 60 0,0
22.03.2019 11:00:00 13,5 -0,6 18,7 7,5 8,5 5 3 13 7 WNW 1028,6 20 60 0,0
22.03.2019 10:00:00 11,0 1,8 16,7 7,6 8,5 5 3 7 4 NW 1029,2 19 60 0,0
22.03.2019 09:00:00 8,6 0,1 6,6 7,7 8,5 2 1 7 4 E 1029,8 20 60 0,0
22.03.2019 08:00:00 2,9 -1,5 -3,3 7,7 8,5 2 1 9 5 SE 1031,3 19 48 0,0
22.03.2019 07:00:00 -0,7 -2,9 -3,3 7,8 8,5 9 5 12 7 E 1031,7 18 0 0,0
22.03.2019 06:00:00 0,2 -2,2 -3,0 7,9 8,5 8 4 11 6 ESE 1031,2 19 0 0,0
22.03.2019 05:00:00 0,4 -2,0 -2,9 7,9 8,5 8 4 10 5 E 1031,1 19 0 0,0
22.03.2019 04:00:00 0,6 -2,5 -2,8 7,9 8,5 9 5 12 7 E 1031,3 17 0 0,0
22.03.2019 03:00:00 1,2 -2,0 -2,0 8,0 8,5 10 6 12 6 E 1031,2 19 0 0,0
22.03.2019 02:00:00 1,4 -1,7 -2,4 8,0 8,5 6 4 8 5 ESE 1031,4 19 0 0,0
22.03.2019 01:00:00 1,7 -1,9 -2,2 8,0 8,5 6 3 9 5 E 1031,2 20 0 0,0
22.03.2019 00:00:00 2,6 -1,6 -1,7 8,0 8,5 6 4 11 6 ESE 1031,1 19 0 0,0
21.03.2019 23:00:00 2,7 -1,7 -1,4 7,9 8,5 9 5 11 6 E 1031,1 28 0 0,0
21.03.2019 22:00:00 3,8 -1,8 -0,1 7,9 8,5 6 3 9 5 E 1030,7 47 0 0,0
21.03.2019 21:00:00 6,7 -1,2 0,1 7,7 8,5 5 3 7 4 ENE 1029,6 43 0 0,0
21.03.2019 20:00:00 9,1 -3,5 3,1 7,6 8,5 0 0 5 3 N 1028,5 19 0 0,0
21.03.2019 19:00:00 12,7 -4,9 8,2 7,5 8,5 4 2 9 5 WNW 1027,2 43 41 0,0
21.03.2019 18:00:00 14,1 -5,1 17,7 7,4 8,5 5 3 13 7 W 1026,7 57 60 0,0
21.03.2019 17:00:00 14,5 -4,8 19,8 7,2 8,5 8 4 13 7 NW 1026,4 55 60 0,0
21.03.2019 16:00:00 13,8 -3,1 19,9 7,1 8,5 10 5 17 9 WNW 1026,7 45 60 0,0
21.03.2019 15:00:00 13,6 -4,1 20,2 7,0 8,5 5 3 15 8 N 1027,1 20 60 0,0
21.03.2019 14:00:00 13,0 -4,2 20,4 7,0 8,5 5 3 16 8 NNW 1027,8 52 60 0,0
21.03.2019 13:00:00 11,8 -3,6 19,1 7,0 8,5 4 2 16 9 W 1028,6 20 60 0,0
21.03.2019 12:00:00 10,5 -4,0 17,8 7,1 8,5 8 4 14 7 N 1028,9 19 60 0,0
21.03.2019 11:00:00 9,8 -3,9 14,6 7,1 8,5 4 2 11 6 NNW 1029,1 20 60 0,0
21.03.2019 10:00:00 7,7 -0,3 10,7 7,2 8,5 5 3 10 5 SE 1029,9 19 60 0,0
21.03.2019 09:00:00 4,4 -1,6 3,5 7,3 8,5 3 2 8 4 NNE 1031,0 19 60 0,0
21.03.2019 08:00:00 -0,1 -3,3 -5,4 7,4 8,5 5 3 8 4 ESE 1032,2 19 48 0,0
21.03.2019 07:00:00 -2,9 -4,3 -7,3 7,5 8,5 5 3 9 5 ENE 1032,9 19 0 0,0
21.03.2019 06:00:00 -2,5 -4,2 -7,0 7,6 8,6 4 2 13 7 E 1032,3 19 0 0,0
21.03.2019 05:00:00 -1,9 -4,1 -6,1 7,6 8,5 9 5 10 6 E 1031,9 20 0 0,0
21.03.2019 04:00:00 -1,3 -3,2 -5,5 7,6 8,5 7 4 11 6 ENE 1031,6 20 0 0,0
21.03.2019 03:00:00 -0,9 -3,3 -4,8 7,7 8,5 9 5 13 7 ESE 1032,3 37 0 0,0
21.03.2019 02:00:00 -1,1 -3,6 -5,1 7,7 8,5 6 3 10 5 ENE 1033,1 36 0 0,0
21.03.2019 01:00:00 -0,1 -3,7 -4,6 7,7 8,5 3 2 7 4 E 1032,9 19 0 0,0
21.03.2019 00:00:00 0,7 -3,8 -3,8 7,7 8,5 3 1 11 6 ESE 1032,7 20 0 0,0
20.03.2019 23:00:00 2,3 -3,2 -2,4 7,7 8,5 6 3 13 7 SW 1032,3 31 0 0,0
20.03.2019 22:00:00 5,0 -3,8 -0,4 7,6 8,5 5 3 10 5 NNE 1032,0 34 0 0,0
20.03.2019 21:00:00 5,1 -3,5 -0,3 7,6 8,5 4 2 8 5 NE 1031,9 28 0 0,0
20.03.2019 20:00:00 6,9 -3,7 1,8 7,4 8,5 4 2 19 11 NE 1031,0 55 0 0,0
20.03.2019 19:00:00 8,9 -5,0 6,1 7,3 8,5 11 6 24 13 NE 1029,7 60 40 0,0
20.03.2019 18:00:00 10,8 -6,6 13,0 7,2 8,5 16 9 26 14 NNE 1028,6 60 60 0,0
20.03.2019 17:00:00 11,9 -6,1 17,4 7,1 8,5 13 7 25 14 N 1028,0 60 60 0,0
20.03.2019 16:00:00 12,2 -8,9 19,2 7,0 8,5 13 7 22 12 E 1028,0 60 60 0,0
20.03.2019 15:00:00 12,0 -7,5 19,5 6,9 8,5 10 5 22 12 NE 1028,5 36 60 0,0
20.03.2019 14:00:00 11,9 -8,1 17,7 6,9 8,5 14 7 33 18 NE 1028,8 20 60 0,0
20.03.2019 13:00:00 11,4 -10,2 17,7 6,9 8,5 15 8 30 16 ENE 1029,4 56 60 0,0
20.03.2019 12:00:00 10,8 -10,7 16,1 7,0 8,5 17 9 34 18 ENE 1029,9 20 60 0,0
20.03.2019 11:00:00 9,0 -3,6 13,2 7,0 8,5 4 2 10 5 S 1030,3 20 60 0,0
20.03.2019 10:00:00 4,8 -1,0 8,6 7,1 8,5 5 3 9 5 WSW 1031,6 20 60 0,0
20.03.2019 09:00:00 1,8 -1,5 3,5 7,2 8,5 3 2 8 4 SW 1032,1 20 60 0,0
20.03.2019 08:00:00 -0,9 -2,2 -6,8 7,3 8,5 0 0 7 4 N 1032,5 19 45 0,0
20.03.2019 07:00:00 -3,5 -4,5 -7,4 7,4 8,5 3 1 7 4 SE 1033,2 30 0 0,0
20.03.2019 06:00:00 -3,3 -4,4 -7,1 7,5 8,5 3 1 8 5 E 1032,7 18 0 0,0
20.03.2019 05:00:00 -3,1 -4,4 -6,6 7,5 8,5 6 3 8 5 ESE 1032,5 28 0 0,0
20.03.2019 04:00:00 -2,3 -4,0 -6,3 7,6 8,5 3 2 8 4 WNW 1032,4 28 0 0,0
20.03.2019 03:00:00 -0,5 -2,6 -5,4 7,6 8,5 5 3 8 5 WNW 1031,8 33 0 0,0
20.03.2019 02:00:00 -1,0 -3,2 -5,2 7,6 8,5 4 2 7 4 WSW 1032,3 41 0 0,0
20.03.2019 01:00:00 -0,4 -3,6 -3,8 7,6 8,5 4 2 15 8 W 1032,4 32 0 0,0
20.03.2019 00:00:00 1,8 -3,1 -2,3 7,7 8,5 10 5 18 10 NW 1031,6 39 0 0,0
19.03.2019 23:00:00 3,7 -3,4 -0,7 7,7 8,5 3 2 19 11 NE 1030,8 33 0 0,0
19.03.2019 22:00:00 4,5 -2,8 1,9 7,6 8,5 12 6 18 10 N 1029,9 60 0 0,0
19.03.2019 21:00:00 4,9 -2,9 0,7 7,6 8,5 9 5 13 7 NNW 1029,4 60 0 0,0
19.03.2019 20:00:00 5,6 -3,8 2,5 7,6 8,5 8 4 21 11 NNE 1028,8 60 0 0,0
19.03.2019 19:00:00 6,9 -4,2 4,7 7,5 8,5 11 6 22 12 NNE 1027,9 60 22 0,0
19.03.2019 18:00:00 8,1 -4,1 7,1 7,4 8,5 13 7 26 14 N 1026,8 56 26 0,0
19.03.2019 17:00:00 7,8 -4,3 7,8 7,3 8,5 18 10 32 17 NNE 1026,5 60 6 0,0
19.03.2019 16:00:00 8,1 -4,1 9,5 7,2 8,5 19 10 32 17 NNE 1026,1 60 25 0,0
19.03.2019 15:00:00 8,1 -4,1 11,0 7,2 8,5 12 7 27 14 NE 1025,9 59 43 0,0
19.03.2019 14:00:00 8,5 -2,8 14,7 7,2 8,5 16 9 28 15 NNE 1025,9 55 54 0,0
19.03.2019 13:00:00 7,3 -0,4 7,9 7,2 8,5 13 7 31 17 NNE 1027,0 20 12 0,0
19.03.2019 12:00:00 6,5 -1,7 7,9 7,2 8,5 15 8 29 16 N 1026,8 50 12 0,0
19.03.2019 11:00:00 7,0 0,9 7,1 7,2 8,5 14 8 27 15 NNE 1026,2 60 40 0,0
19.03.2019 10:00:00 5,5 3,3 4,9 7,3 8,5 8 5 14 8 NNW 1026,3 20 52 0,0
19.03.2019 09:00:00 2,1 1,5 3,0 7,4 8,5 4 2 9 5 E 1027,0 0,2 48 0,0
19.03.2019 08:00:00 1,5 1,1 -1,2 7,4 8,5 6 4 19 11 NW 1026,6 34 43 0,0
19.03.2019 07:00:00 0,8 0,4 -0,5 7,4 8,5 5 3 8 5 WNW 1026,2 20 0 0,0
19.03.2019 06:00:00 1,0 0,6 -0,2 7,5 8,5 8 4 13 7 NW 1025,9 18 0 0,0
19.03.2019 05:00:00 1,2 0,8 0,1 7,5 8,5 10 5 13 7 NW 1025,8 14 0 0,0
19.03.2019 04:00:00 0,7 0,1 0,0 7,5 8,5 3 1 8 4 NNW 1025,9 17 0 0,0
19.03.2019 03:00:00 0,6 0,0 -0,4 7,6 8,5 6 4 13 7 NW 1026,0 1,4 0 0,0
19.03.2019 02:00:00 1,1 0,4 -0,1 7,6 8,5 7 4 16 9 W 1026,0 19 0 0,0
19.03.2019 01:00:00 1,9 1,2 1,4 7,6 8,4 14 7 19 11 NNW 1026,2 17 0 0,0
19.03.2019 00:00:00 2,3 1,6 2,1 7,6 8,5 8 5 18 10 NW 1026,4 14 0 0,2
18.03.2019 23:00:00 3,0 2,3 3,0 7,6 8,5 9 5 14 8 NW 1026,5 7 0 0,4
18.03.2019 22:00:00 3,0 2,3 2,7 7,6 8,5 3 1 8 4 W 1026,6 10 0 0,0
18.03.2019 21:00:00 2,9 2,0 2,5 7,6 8,5 3 1 6 4 W 1026,2 6 0 0,0
18.03.2019 20:00:00 2,8 1,6 1,6 7,6 8,5 6 3 40 22 WSW 1026,3 8 0 1,0
18.03.2019 19:00:00 4,4 2,1 3,7 7,5 8,4 5 3 9 5 SW 1025,4 20 0 -
18.03.2019 18:00:00 5,0 2,2 5,5 7,5 8,5 7 4 20 11 NW 1024,9 47 2 0,0
18.03.2019 17:00:00 4,5 2,0 3,7 7,5 8,5 6 3 32 17 NNW 1024,8 50 4 0,2

tt = temperature
td = dewpoint
tt 5cm = temperature 5cm
tt -20cm = temperature -20cm
tt -100cm = temperature -100cm
ff = wind speed
fx = gusts
dd = wind direction
ppp = reduced air pressure
vv = visibility
sd = sunshine duration
rr = precipitation

Next stations